Other Public Products
Issued by NWS Grand Forks, ND

Home | Current Version | Previous Version | Graphics & Text | Print | Product List | Glossary On
Versions: 1 2 3 4 5 6 7 8 9 10 11 12 13 14 15 16 17 18 19 20 21 22 23 24 25 26 27 28 29 30 31 32 33 34 35 36 37 38 39 40 41 42 43 44 45 46 47 48 49 50
000
FPUS83 KFGF 180210
OPUFGF
PRAIRIE TO PINES WEATHER ROUNDUP
NATIONAL WEATHER SERVICE EASTERN NORTH DAKOTA/GRAND FORKS ND
900 PM CDT FRI APR 17 2015

 **SATELLITE DATA USED TO AUGMENT SKY COVER AT AUTOMATED STATIONS**
 *****  WEATHER ACROSS EASTERN NORTH DAKOTA  *****

CITY           SKY/WX    TMP DP  RH WIND       PRES   REMARKS
GRAND FORKS    CLEAR     52  25  35 N10       30.09R
GRAND FORKS AF CLEAR     51  25  35 N10       30.10R
GRAND CITY NWS   N/A     55 N/A N/A N6          N/A
BUXTON         NOT AVBL
DEVILS LAKE    CLEAR     54  23  30 NE13      30.11R
FARGO          PTCLDY    63  22  20 N16       30.05R
WAHPETON ARPT  MOCLDY    57   7  13 W8        30.03S
$$

 *****  WEATHER ACROSS CENTRAL AND WESTERN NORTH DAKOTA  *****

CITY           SKY/WX    TMP DP  RH WIND       PRES   REMARKS
JAMESTOWN      MOCLDY    58  27  30 NE12      30.05R
BISMARCK       PTCLDY    62  30  29 NE6       30.07R
MINOT          CLEAR     50  24  36 N6        30.11R
MINOT AFB      CLEAR     54  26  34 NE6       30.10R
GARRISON         N/A     58  32  37 NE8       30.08R
WILLISTON      CLEAR     60  25  26 NE8       30.06F
DICKINSON      PTCLDY    57  20  23 SE6       30.06S
HETTINGER      CLOUDY    54  22  28 E9        30.09S
$$

 *****  OTHER OBSERVATIONS NORTHEAST NORTH DAKOTA  *****

CITY           SKY/WX    TMP DP  RH WIND       PRES   REMARKS
WALHALLA       FAIR      48  27  43 NW3       30.14R
LANGDON        FAIR      48  28  46 NE14      30.13R
CAVALIER       FAIR      50  27  40 N6        30.13R
GRAFTON        FAIR      54  28  37 N12       30.12R
CANDO          FAIR      52  28  40 E12       30.12R
FORT TOTTEN    NOT AVBL
ROLLA          FAIR      46  28  49 E8        30.13R
RUGBY          FAIR      46  25  42 N5        30.10S
 ***** THE ABOVE OBSERVATIONS ARE NON NWS ARE NOT QUALITY
        CONTROLLED AND MAY MIS-REPORT RAIN FOR SNOW...
$$

 *****  OTHER OBSERVATIONS SOUTHEAST NORTH DAKOTA *****

CITY           SKY/WX    TMP DP  RH WIND       PRES   REMARKS
COOPERSTOWN    NOT AVBL
VALLEY CITY    FAIR      59  30  33 NE12      30.06R
OAKES            N/A     57  23  26 CALM      30.05R
GWINNER        CLEAR     61  23  23 CALM      30.05S
SHEYENNE NWR     N/A     59  21  23 W2        29.95
BUFFALO        NOT AVBL
WYNDMERE         N/A     57  14  18 SW3         N/A
 ***** THE ABOVE OBSERVATIONS ARE NON NWS ARE NOT QUALITY
       CONTROLLED AND MAY MIS-REPORT RAIN FOR SNOW...
$$

  *****  WEATHER ACROSS NORTHERN MINNESOTA  *****

CITY           SKY/WX    TMP DP  RH WIND       PRES   REMARKS
FLAG ISLAND    CLEAR     46  32  57 NE15      30.11R
WARROAD        CLEAR     48  30  49 NW6       30.11R
ROSEAU         CLEAR     48  32  53 N9        30.11R
HALLOCK        CLEAR     52  28  40 NE8       30.12R
THF RVR FALLS  CLEAR     55  27  33 N9        30.10R
HALSTAD        NOT AVBL
FOSSTON        CLEAR     48  16  27 N9        30.08R
BAUDETTE       CLEAR     46  29  51 N8        30.09R
WASKISH        CLEAR     52  27  37 N3        30.08R
CROOKSTON      CLEAR     55  21  26 NE8       30.09R
$$
  *****  WEATHER ACROSS CENTRAL AND WEST MINNESOTA  *****

CITY           SKY/WX    TMP DP  RH WIND       PRES   REMARKS
BEMIDJI        CLEAR     56  24  28 N13G18    30.05R
PARK RAPIDS    PTCLDY    65  29  25 N17G24    30.03R
WADENA         MOCLDY    57  25  28 SW5       30.03R
DETROIT LAKES  PTCLDY    63  32  31 N5        30.05R
MOORHEAD       PTCLDY    63  25  23 N16       30.05R
FERGUS FALLS   MOCLDY    61   7  11 W3        30.03S
ELBOW LAKE     FAIR      61  21  21 W3        30.04R
MORRIS MN      CLEAR     61  21  21 W5        30.04S
STAPLES        MOCLDY    57  19  23 SW5       30.03R
WHEATON        PTCLDY    59  21  23 CALM      30.06R
$$
  *****  WEATHER ELSEWHERE ACROSS MINNESOTA  *****

CITY           SKY/WX    TMP DP  RH WIND       PRES   REMARKS
DULUTH         CLEAR     59  24  26 W8        29.99R
INTRNTL FALLS  CLEAR     53  29  39 N14G23    30.07R
ELY            CLEAR     57  23  26 NW12G20   30.01R
CLOQUET        CLEAR     59  18  20 W3        30.00S
BRAINERD       PTCLDY    59  23  25 SW3       30.03R
HIBBING        CLEAR     61  26  26 N17G23    30.01R
ALEXANDRIA     MOCLDY    60  22  23 SW3       30.05S
SAINT CLOUD    PTCLDY    60  23  24 NW6       30.03R
MINNEAPOLIS    PTCLDY    67  25  20 NW6       30.02R
$$

  *****  WEATHER ACROSS SOUTH DAKOTA  *****

CITY           SKY/WX    TMP DP  RH WIND       PRES   REMARKS
SIOUX FALLS    MOCLDY    65  40  39 N5        30.03R
BROOKINGS      PTCLDY    61  25  25 N5        30.07R
WATERTOWN      PTCLDY    58  22  24 CALM      30.06S
HURON          MOCLDY    61  25  25 NE3       30.04S
SISSETON         N/A     53  24  32 W6        30.04R
ABERDEEN       PTCLDY    59  28  30 NE6       30.06R
MITCHELL       CLOUDY    64  36  35 N6        30.04S
PIERRE         CLOUDY    63  32  31 SE6       30.05S
MOBRIDGE       PTCLDY    53  27  36 E3        30.05S
RAPID CITY     LGT RAIN  49  43  80 SW9       30.12R
$$

  *****  SOME WEATHER IN NEARBY STATES *****

CITY           SKY/WX    TMP DP  RH WIND       PRES   REMARKS
GLASGOW MT     CLEAR     61  26  26 SE7       30.00F
GREAT FALLS MT CLEAR     63  30  28 SE5       29.96S
CHEYENNE WY    LGT RAIN  34  31  88 N13       30.06F WCI  25
SCOTTSBLUFF NE CLOUDY    44  44 100 W13       30.04R
OMAHA NE       CLOUDY    71  53  52 E3        29.98S
DES MOINES IA  CLOUDY    74  50  42 NE3       30.00R
DAVENPORT IA   MOCLDY    65  45  48 NW3       30.01R
CHICAGO IL     PTCLDY    63  46  54 SE7       30.00R
EAU CLAIRE WI  CLEAR     63  31  30 NW6       30.01R
LA CROSSE WI   PTCLDY    64  47  53 CALM      29.98R
$$

  *****  SOME NATIONAL WEATHER *****

CITY           SKY/WX    TMP DP  RH WIND       PRES   REMARKS
LA GUARDIA NY  PTCLDY    64  52  64 N6        29.94R
RALEIGH NC     CLOUDY    67  62  84 SW3       30.02R
ATLANTA GA     LGT RAIN  63  60  90 E7        30.04R FOG
NEW ORLEANS LA CLOUDY    76  69  79 S6        29.93R
OKLAHOMA CITY  CLOUDY    65  58  78 S5        29.94F
ALBUQUERQUE NM MOCLDY    50  17  27 NW16      30.03R
SALT LAKE CITY MOCLDY    59  36  42 E6        30.01S
LOS ANGELES CA CLEAR     66  45  46 W16       29.96R
BOISE ID       CLEAR     68  27  21 W8        30.00F
SEATTLE WA     PTCLDY    61  42  49 N13       30.25S
$$

*** WEATHER ACROSS MANITOBA...SASKATCHEWAN AND ONTARIO ***
                ***ONTARIO***

CITY           SKY/WX    TMP DP  RH WIND       PRES   REMARKS
GERALDTON      LGT RAIN  43  41  93 N5        29.93R
THUNDER BAY    PTCLDY    61  27  27 NW22G32   29.93R
SIOUX LOOKOUT  CLEAR     39  30  70 N5        30.14R
TORONTO        CLEAR     57  39  51 NW7       30.00S
BIG TROUT LK   CLEAR     30  27  86 NW3       30.08R
PICKLE LAKE    PTCLDY    36  34  93 NW6       30.08R
DRYDEN         CLEAR     41  32  70 N8        30.14R
KENORA         NOT AVBL
$$
                *** MANITOBA***

CITY           SKY/WX    TMP DP  RH WIND       PRES   REMARKS
BRANDON        PTCLDY    48  32  53 NE14      30.14R
DAUPHIN        CLEAR     45  34  65 E7        30.16S
ISLAND LAKE    PTCLDY    37  36  93 CALM      30.13R
PILOT MOUND      N/A     48  30  49 NE12        N/A
THE PAS        CLOUDY    46  30  53 SE5       30.11S
THOMPSON       PTCLDY    43  27  52 NE6       30.12R
WINNIPEG       PTCLDY    45  30  57 NE14      30.16R
LYNN LAKE      MOCLDY    45  21  39 E6        30.06F
CHURCHILL      CLEAR     19  16  86 N10       30.18R WCI   8
GILLAM         CLEAR     36  30  80 S5        30.14R
$$
                ***SASKATCHEWAN***

CITY           SKY/WX    TMP DP  RH WIND       PRES   REMARKS
ESTEVAN        NOT AVBL
KINDERSLEY     PTCLDY    61  28  29 S10       29.85F
LLOYDMINSTER   CLOUDY    59  28  31 S9G20     29.84F
PRINCE ALBERT  NOT AVBL
REGINA         CLEAR     54  27  35 E8        30.07F



USA.gov is the U.S. government's official web portal to all federal, state and local government web resources and services.